Location: Cicognara
(44.9500°N, 10.4667°E)
Time: 15:27:36
(UTC+00:00)

Cosmos 1340 - Pass Details

Date: 20 June 2021
Orbit: 498 x 504 km, 81.2° (Epoch: 03 August)

Event Time Altitude Azimuth Distance (km) Brightness Sun altitude
Exits shadow 21:07:20 12° 206° (SSW) 1,589 4.9 -15.2°
Maximum altitude 21:10:43 53° 283° (WNW) 629 3.3 -15.5°
Drops below altitude 10° 21:14:26 10° 1° (N) 1,727 6.3 -15.9°
Sets 21:16:36 0° 7° (N) 2,617 7.2 -16.1°
